This demonstration page uses our WeatherBlox Daily Observations layout. Learn more.

Left ArrowRight Arrow

Hourly Observations for September 15, 2017

Temp ( °F °C ) Dew Point ( °F °C ) Humidity (%) Winds ( mph kmh ) Pressure ( in mb ) Visibility ( mi km ) Precip ( " mm )
12:51 am 00:51 Clear 79 26.1 52 11.1 39 39 NW 10 17 29.7 1006 10 16.0934 0 0
1:51 am 01:51 Clear 77 25 52 11.1 42 42 NW 8 13 29.71 1006 10 16.0934 0 0
2:51 am 02:51 Clear 73 22.8 52 11.1 48 48 WNW 6 9 29.72 1007 10 16.0934 0 0
3:51 am 03:51 Clear 69 20.6 52 11.1 55 55 Calm 29.75 1007 10 16.0934 0 0
4:51 am 04:51 Clear 67 19.4 52 11.1 59 59 Calm 29.76 1008 10 16.0934 0 0
5:51 am 05:51 Clear 66 18.9 51 10.6 59 59 ESE 6 9 29.78 1009 10 16.0934 0 0
6:51 am 06:51 Sunny 71 21.7 53 11.7 53 53 ESE 5 7 29.79 1009 10 16.0934 0 0
7:51 am 07:51 Sunny 76 24.4 54 12.2 47 47 ESE 6 9 29.8 1009 10 16.0934 0 0
8:51 am 08:51 Sunny 81 27.2 54 12.2 39 39 E 9 15 29.79 1009 10 16.0934 0 0
9:51 am 09:51 Sunny 85 29.4 54 12.2 35 35 E 8 13 29.78 1008 10 16.0934 0 0
10:51 am 10:51 Sunny 87 30.6 51 10.6 29 29 SSE 7 11 29.76 1008 10 16.0934 0 0
11:51 am 11:51 Sunny 89 31.7 49 9.4 25 25 S 8 13 29.74 1007 10 16.0934 0 0
12:51 pm 12:51 Mostly Sunny 90 32.2 47 8.3 23 23 undefined N/A 29.7 1006 10 16.0934 0 0
1:51 pm 13:51 Mostly Sunny 93 33.9 48 8.9 21 21 SW 10 17 29.68 1005 10 16.0934 0 0
2:51 pm 14:51 Mostly Sunny 91 32.8 46 7.8 21 21 S 9 15 29.66 1005 10 16.0934 0 0
3:47 pm 15:47 Sunny 91 33 48 9 23 23 NW 17 28 29.56 1001 10 16.0934 0 0
3:51 pm 15:51 Sunny 92 33.3 50 10 24 24 WNW 21 33 29.66 1004 10 16.0934 0 0
4:51 pm 16:51 Sunny 90 32.2 49 9.4 24 24 WNW 20 31 29.66 1004 10 16.0934 0 0
5:51 pm 17:51 Sunny 86 30 51 10.6 30 30 WNW 18 30 29.68 1005 10 16.0934 0 0
6:51 pm 18:51 Mostly Clear 84 28.9 49 9.4 30 30 WNW 13 20 29.69 1005 10 16.0934 0 0
7:51 pm 19:51 Clear 81 27.2 50 10 34 34 NW 8 13 29.71 1006 10 16.0934 0 0
8:51 pm 20:51 Mostly Clear 80 26.7 50 10 35 35 NNW 8 13 29.71 1006 10 16.0934 0 0
9:51 pm 21:51 Clear 79 26.1 51 10.6 38 38 SW 3 6 29.73 1007 10 16.0934 0 0
10:51 pm 22:51 Clear 74 23.3 50 10 43 43 WNW 6 9 29.74 1007 10 16.0934 0 0
11:51 pm 23:51 Clear 77 25 48 8.9 36 36 NW 9 15 29.74 1007 10 16.0934 0 0

Powered by AerisWeather